Terug naar catalogus

OPS 4682 DEB

ActiefPO
NORAD 38405·DEBRIS·🇺🇸 United States

Gelanceerd Apr 3, 1965 vanaf Vandenberg Space Force Base

Loading…

Volgende Passages (komende 24 uur)

TLE

VersSource: Space-Track

Epoch: Sep 11, 2026, 19:45 UTC

1 38405U 65027DJ  26254.82294101  .00001015  00000-0  33582-2 0  9996
2 38405  90.2730  24.3371 0016322 286.1185  73.8140 12.99814264676310

Volg OPS 4682 DEB in realtime met AllMySat

Download on the App Store